| time (UTC) | temp F | wind direction | speed MPH | gust MPH | rain 1hr in | rain 24hr in | rain mn in | humidity % | barometer mb |
| 20260509103101 | 54 | 138 | 0.0 | 0.0 | 0.00 | 0.31 | 0.01 | 97 | 1009.5 |
| 20260509101603 | 54 | 138 | 0.0 | 0.0 | 0.00 | 0.31 | 0.01 | 97 | 1009.5 |
| 20260509100051 | 54 | 138 | 0.0 | 0.0 | 0.00 | 0.31 | 0.01 | 97 | 1009.5 |
| 20260509094602 | 54 | 138 | 0.0 | 0.0 | 0.00 | 0.31 | 0.01 | 97 | 1009.4 |
| 20260509093050 | 55 | 138 | 0.0 | 0.0 | 0.00 | 0.31 | 0.01 | 97 | 1009.6 |
| 20260509091548 | 54 | 138 | 0.0 | 0.0 | 0.00 | 0.31 | 0.01 | 97 | 1009.6 |
| 20260509090057 | 55 | 138 | 0.0 | 0.0 | 0.00 | 0.31 | 0.01 | 97 | 1009.7 |
| 20260509084549 | 55 | 138 | 0.0 | 0.0 | 0.00 | 0.31 | 0.01 | 96 | 1009.7 |
| 20260509083054 | 55 | 138 | 0.0 | 0.0 | 0.00 | 0.31 | 0.01 | 96 | 1009.8 |
| 20260509081541 | 56 | 138 | 0.0 | 0.0 | 0.00 | 0.31 | 0.01 | 96 | 1009.7 |
| 20260509080045 | 56 | 138 | 0.0 | 0.0 | 0.00 | 0.31 | 0.01 | 96 | 1009.8 |
| 20260509074544 | 56 | 139 | 0.0 | 0.0 | 0.00 | 0.31 | 0.01 | 96 | 1009.9 |
| 20260509073039 | 57 | 139 | 0.0 | 0.0 | 0.00 | 0.31 | 0.01 | 96 | 1010.0 |
| 20260509071542 | 57 | 139 | 0.0 | 0.0 | 0.00 | 0.31 | 0.01 | 96 | 1010.1 |
| 20260509070035 | 57 | 139 | 0.0 | 0.0 | 0.01 | 0.31 | 0.01 | 96 | 1010.3 |
| 20260509064534 | 57 | 139 | 0.0 | 0.0 | 0.01 | 0.31 | 0.01 | 96 | 1010.3 |
| 20260509063033 | 58 | 139 | 0.0 | 0.0 | 0.01 | 0.31 | 0.01 | 96 | 1010.3 |
| 20260509061530 | 58 | 139 | 0.0 | 0.0 | 0.01 | 0.31 | 0.01 | 96 | 1010.4 |
| 20260509060030 | 58 | 139 | 0.0 | 0.0 | 0.00 | 0.30 | 0.00 | 96 | 1010.3 |
| 20260509054531 | 58 | 139 | 0.0 | 0.0 | 0.00 | 0.30 | 0.00 | 96 | 1010.1 |
| 20260509053039 | 58 | 139 | 0.0 | 0.0 | 0.00 | 0.30 | 0.00 | 96 | 1009.8 |
| 20260509051524 | 59 | 139 | 0.0 | 0.0 | 0.00 | 0.30 | 0.00 | 96 | 1010.0 |
| 20260509050022 | 59 | 139 | 0.0 | 0.0 | 0.00 | 0.30 | 0.30 | 96 | 1010.2 |
| 20260509044521 | 59 | 139 | 0.0 | 0.0 | 0.00 | 0.30 | 0.30 | 95 | 1010.2 |
| 20260509043020 | 60 | 139 | 0.0 | 0.0 | 0.00 | 0.30 | 0.30 | 95 | 1010.1 |
| 20260509041519 | 60 | 139 | 0.0 | 0.0 | 0.00 | 0.30 | 0.30 | 95 | 1010.2 |
| 20260509040027 | 60 | 139 | 0.0 | 0.0 | 0.00 | 0.30 | 0.30 | 95 | 1010.3 |
| 20260509034518 | 60 | 139 | 0.0 | 0.0 | 0.00 | 0.30 | 0.30 | 95 | 1010.1 |
| 20260509033019 | 61 | 139 | 0.0 | 0.0 | 0.00 | 0.30 | 0.30 | 95 | 1010.0 |
| 20260509031517 | 61 | 139 | 0.0 | 1.0 | 0.00 | 0.30 | 0.30 | 95 | 1009.8 |
| 20260509030031 | 61 | 132 | 0.0 | 0.0 | 0.00 | 0.30 | 0.30 | 95 | 1009.8 |
| 20260509024517 | 61 | 132 | 0.0 | 1.0 | 0.00 | 0.30 | 0.30 | 95 | 1009.3 |
| 20260509023018 | 61 | 106 | 0.0 | 0.0 | 0.00 | 0.30 | 0.30 | 94 | 1009.1 |
| 20260509021518 | 62 | 106 | 0.0 | 1.0 | 0.02 | 0.30 | 0.30 | 94 | 1008.6 |
| 20260509020015 | 62 | 98 | 0.0 | 4.0 | 0.02 | 0.30 | 0.30 | 94 | 1008.0 |
| 20260509014515 | 62 | 98 | 0.0 | 5.0 | 0.02 | 0.30 | 0.30 | 94 | 1007.5 |
| 20260509013015 | 63 | 96 | 0.0 | 4.0 | 0.07 | 0.30 | 0.30 | 93 | 1007.6 |
| 20260509011514 | 63 | 103 | 0.0 | 6.0 | 0.13 | 0.28 | 0.28 | 93 | 1007.6 |
| 20260509010013 | 63 | 94 | 1.0 | 5.0 | 0.17 | 0.28 | 0.28 | 93 | 1007.4 |
| 20260509004522 | 63 | 96 | 0.0 | 4.0 | 0.28 | 0.28 | 0.28 | 91 | 1007.4 |
| 20260509003013 | 63 | 138 | 0.0 | 4.0 | 0.21 | 0.21 | 0.21 | 88 | 1007.9 |
| 20260509001513 | 63 | 110 | 0.0 | 4.0 | 0.15 | 0.15 | 0.15 | 86 | 1007.4 |
| 20260509000009 | 66 | 91 | 0.0 | 7.0 | 0.09 | 0.09 | 0.09 | 76 | 1008.0 |
| 20260508234513 | 69 | 165 | 1.0 | 9.0 | 0.00 | 0.00 | 0.00 | 65 | 1007.3 |
| 20260508233009 | 74 | 152 | 1.0 | 6.0 | 0.00 | 0.00 | 0.00 | 55 | 1006.6 |
| 20260508231508 | 81 | 133 | 0.0 | 2.0 | 0.00 | 0.00 | 0.00 | 50 | 1005.6 |
| 20260508230007 | 82 | 95 | 1.0 | 3.0 | 0.00 | 0.00 | 0.00 | 48 | 1004.9 |
| 20260508224505 | 82 | 124 | 1.0 | 4.0 | 0.00 | 0.00 | 0.00 | 48 | 1005.0 |
| 20260508223004 | 84 | 105 | 0.0 | 4.0 | 0.00 | 0.00 | 0.00 | 46 | 1005.2 |
| 20260508221503 | 85 | 131 | 1.0 | 4.0 | 0.00 | 0.00 | 0.00 | 44 | 1005.4 |
| 20260508220001 | 86 | 134 | 1.0 | 6.0 | 0.00 | 0.00 | 0.00 | 43 | 1005.2 |
| 20260508214600 | 84 | 179 | 0.0 | 6.0 | 0.00 | 0.00 | 0.00 | 45 | 1005.5 |
| 20260508213056 | 84 | 179 | 3.0 | 10.0 | 0.00 | 0.00 | 0.00 | 44 | 1005.9 |
| 20260508211555 | 84 | 129 | 2.0 | 7.0 | 0.00 | 0.00 | 0.00 | 45 | 1006.3 |
| 20260508210051 | 84 | 94 | 1.0 | 5.0 | 0.00 | 0.00 | 0.00 | 45 | 1006.7 |
| 20260508204548 | 84 | 146 | 0.0 | 5.0 | 0.00 | 0.00 | 0.00 | 44 | 1006.9 |
| 20260508203047 | 84 | 132 | 2.0 | 5.0 | 0.00 | 0.00 | 0.00 | 43 | 1007.0 |
| 20260508201542 | 84 | 99 | 1.0 | 7.0 | 0.00 | 0.00 | 0.00 | 43 | 1007.3 |
| 20260508200041 | 83 | 141 | 1.0 | 7.0 | 0.00 | 0.00 | 0.00 | 43 | 1007.6 |
| 20260508194540 | 83 | 98 | 2.0 | 9.0 | 0.00 | 0.00 | 0.00 | 43 | 1008.0 |
| 20260508193034 | 83 | 134 | 1.0 | 6.0 | 0.00 | 0.00 | 0.00 | 43 | 1008.2 |
| 20260508191536 | 81 | 127 | 1.0 | 6.0 | 0.00 | 0.00 | 0.00 | 44 | 1008.3 |
| 20260508190028 | 81 | 100 | 1.0 | 5.0 | 0.00 | 0.00 | 0.00 | 44 | 1008.5 |
| 20260508184526 | 81 | 115 | 1.0 | 6.0 | 0.00 | 0.00 | 0.00 | 45 | 1008.5 |
| 20260508183029 | 80 | 129 | 1.0 | 5.0 | 0.00 | 0.00 | 0.00 | 45 | 1008.7 |
| 20260508181520 | 79 | 136 | 1.0 | 6.0 | 0.00 | 0.00 | 0.00 | 44 | 1009.0 |
| 20260508180021 | 80 | 150 | 0.0 | 7.0 | 0.00 | 0.00 | 0.00 | 45 | 1009.3 |
| 20260508174517 | 79 | 131 | 1.0 | 4.0 | 0.00 | 0.00 | 0.00 | 45 | 1009.9 |
| 20260508173011 | 78 | 115 | 1.0 | 6.0 | 0.00 | 0.00 | 0.00 | 47 | 1010.2 |
| 20260508171510 | 78 | 129 | 2.0 | 6.0 | 0.00 | 0.00 | 0.00 | 47 | 1010.6 |
| 20260508170007 | 76 | 128 | 1.0 | 7.0 | 0.00 | 0.00 | 0.00 | 49 | 1010.9 |
| 20260508164600 | 76 | 122 | 0.0 | 5.0 | 0.00 | 0.00 | 0.00 | 50 | 1011.0 |
| 20260508163057 | 75 | 119 | 2.0 | 6.0 | 0.00 | 0.00 | 0.00 | 50 | 1011.3 |
| 20260508161559 | 75 | 98 | 1.0 | 6.0 | 0.00 | 0.00 | 0.00 | 51 | 1011.4 |
| 20260508160050 | 74 | 127 | 0.0 | 6.0 | 0.00 | 0.00 | 0.00 | 53 | 1011.7 |
| 20260508154606 | 73 | 129 | 0.0 | 5.0 | 0.00 | 0.00 | 0.00 | 54 | 1011.8 |
| 20260508153045 | 71 | 122 | 0.0 | 7.0 | 0.00 | 0.00 | 0.00 | 56 | 1012.1 |
| 20260508151539 | 70 | 127 | 0.0 | 5.0 | 0.00 | 0.00 | 0.00 | 59 | 1012.4 |
| 20260508150052 | 69 | 99 | 0.0 | 6.0 | 0.00 | 0.00 | 0.00 | 62 | 1012.7 |
| 20260508144533 | 68 | 117 | 1.0 | 6.0 | 0.00 | 0.00 | 0.00 | 62 | 1012.9 |
| 20260508143034 | 66 | 118 | 0.0 | 6.0 | 0.00 | 0.00 | 0.00 | 65 | 1013.0 |
| 20260508141529 | 64 | 133 | 0.0 | 6.0 | 0.00 | 0.00 | 0.00 | 70 | 1013.3 |
| 20260508140026 | 63 | 129 | 0.0 | 2.0 | 0.00 | 0.00 | 0.00 | 73 | 1013.4 |
| 20260508134517 | 61 | 101 | 0.0 | 4.0 | 0.00 | 0.00 | 0.00 | 76 | 1013.4 |
| 20260508133014 | 59 | 101 | 0.0 | 2.0 | 0.00 | 0.00 | 0.00 | 79 | 1013.5 |
| 20260508131510 | 58 | 105 | 0.0 | 2.0 | 0.00 | 0.00 | 0.00 | 81 | 1013.6 |
| 20260508130006 | 57 | 175 | 0.0 | 2.0 | 0.00 | 0.00 | 0.00 | 84 | 1013.5 |
| 20260508124502 | 55 | 98 | 0.0 | 0.0 | 0.00 | 0.00 | 0.00 | 85 | 1013.4 |
| 20260508123002 | 54 | 139 | 0.0 | 0.0 | 0.00 | 0.00 | 0.00 | 85 | 1013.2 |
| 20260508121606 | 54 | 144 | 0.0 | 0.0 | 0.00 | 0.00 | 0.00 | 85 | 1013.2 |
| 20260508120105 | 54 | 145 | 0.0 | 0.0 | 0.00 | 0.00 | 0.00 | 84 | 1013.2 |
| 20260508114558 | 54 | 136 | 0.0 | 1.0 | 0.00 | 0.00 | 0.00 | 84 | 1013.0 |
| 20260508113059 | 54 | 101 | 0.0 | 1.0 | 0.00 | 0.00 | 0.00 | 83 | 1012.9 |
| 20260508111603 | 54 | 130 | 0.0 | 0.0 | 0.00 | 0.00 | 0.00 | 84 | 1012.7 |
| 20260508104600 | 53 | 96 | 0.0 | 0.0 | 0.00 | 0.00 | 0.00 | 83 | 1012.4 |